Change the Weather History Date:

Sunday, January 26, 2014

  Actual Average Record
Temperature  
Mean Temperature 37 °F -  
Max Temperature 43 °F 47 °F 59 °F (2003)
Min Temperature 31 °F 34 °F 21 °F (2009)
Degree Days  
Heating Degree Days 28    
Moisture  
Dew Point 38 °F    
Average Humidity 100    
Maximum Humidity 100    
Minimum Humidity 93    
Precipitation  
Precipitation 0.00 in 0.14 in - ()
Sea Level Pressure  
Sea Level Pressure 30.20 in    
Wind  
Wind Speed 3 mph ()    
Max Wind Speed 6 mph    
Max Gust Speed -    
Visibility 1.2 miles    
Events Fog    
Averages and records for this station are not official NWS values.
T = Trace of Precipitation, MM = Missing Value Source: Averaged Metar Reports

Daily Weather History Graph

Daily Weather History Graph

Search for Another Location

Airport or City:

Trip Planner

Search our weather history database for the weather conditions in past years. The results will help you decide how hot, cold, wet, or windy it might be!

Date:

Astronomy

Jan. 26, 2014 Rise Set
Actual Time 7:50 AM PST 5:02 PM PST
Civil Twilight 7:16 AM PST 5:37 PM PST
Nautical Twilight 6:37 AM PST 6:15 PM PST
Astronomical Twilight 6:00 AM PST 6:52 PM PST
Moon 3:36 AM PST (1/26) 12:54 PM PST (1/26)
Length of Visible Light 10h 20m
Length of Day
9h 12m
Waning Crescent, 23% of the Moon is Illuminated
Jan 26
Waning Crescent
Jan 30
New
Feb 6
First Quarter
Feb 14
Full
Feb 22
Last Quarter

Hourly Weather History & Observations

Time (PST) Temp. Windchill Dew Point Humidity Pressure Visibility Wind Dir Wind Speed Gust Speed Precip Events Conditions
12:00 AM 35.6 °F 30.7 °F 35.6 °F 100% 30.31 in 0.2 mi West 5.8 mph - N/A Fog Fog
1:00 AM 35.6 °F 31.7 °F 35.6 °F 100% 30.30 in 0.1 mi West 4.6 mph - N/A Fog Fog
2:00 AM 37.4 °F - 37.4 °F 100% 30.29 in 0.1 mi NW 2.3 mph - N/A Fog Fog
3:00 AM 35.6 °F 31.7 °F 35.6 °F 100% 30.30 in 0.1 mi NNE 4.6 mph - N/A Fog Fog
4:00 AM 35 °F - 35 °F 100% 30.29 in 0 mi WNW 2.3 mph - - Fog Heavy Fog
4:00 AM 35.6 °F - 35.6 °F 100% 30.29 in 0.1 mi Calm Calm - N/A Fog Fog
5:00 AM 35.6 °F 30.7 °F 35.6 °F 100% 30.28 in 0.1 mi WNW 5.8 mph - N/A Fog Fog
6:00 AM 35.6 °F 32.8 °F 35.6 °F 100% 30.28 in 0.2 mi West 3.5 mph - N/A Fog Fog
7:00 AM 33.8 °F 30.8 °F 33.8 °F 100% 30.26 in 0.1 mi WSW 3.5 mph - N/A Fog Fog
8:00 AM 35.6 °F - 35.6 °F 100% 30.26 in 0.1 mi Calm Calm - N/A Fog Fog
9:00 AM 33.8 °F 30.8 °F 33.8 °F 100% 30.25 in 0.1 mi NW 3.5 mph - N/A Fog Fog
10:00 AM 35 °F - 35 °F 100% 30.25 in 0 mi WNW 2.3 mph - - Fog Heavy Fog
10:00 AM 35.6 °F - 35.6 °F 100% 30.25 in 0.1 mi NW 2.3 mph - N/A Fog Fog
11:00 AM 35.6 °F 30.7 °F 35.6 °F 100% 30.24 in 0.1 mi West 5.8 mph - N/A Fog Fog
12:00 PM 37.4 °F - 37.4 °F 100% 30.22 in 0.1 mi West 2.3 mph - N/A Fog Fog
12:13 PM 37.4 °F - 37.4 °F 100% 30.22 in 0.2 mi West 2.3 mph - N/A Fog Fog
12:22 PM 39.2 °F - 39.2 °F 100% 30.22 in 0.5 mi Calm Calm - N/A Fog Fog
12:34 PM 39.2 °F - 39.2 °F 100% 30.22 in 1.0 mi Calm Calm - N/A   Mostly Cloudy
12:45 PM 39.2 °F - 39.2 °F 100% 30.21 in 3.0 mi Variable 2.3 mph - N/A   Mostly Cloudy
1:00 PM 41.0 °F - 41.0 °F 100% 30.20 in 12.0 mi Variable 2.3 mph - N/A   Mostly Cloudy
2:00 PM 42.8 °F 41.1 °F 42.8 °F 100% 30.18 in 20.0 mi East 3.5 mph - N/A   Scattered Clouds
3:00 PM 41.0 °F 38.0 °F 41.0 °F 100% 30.16 in 6.0 mi ESE 4.6 mph - N/A   Mostly Cloudy
3:06 PM 41.0 °F 38.0 °F 41.0 °F 100% 30.16 in 1.0 mi ESE 4.6 mph - N/A   Mostly Cloudy
3:09 PM 41.0 °F 38.0 °F 41.0 °F 100% 30.16 in 0.5 mi SE 4.6 mph - N/A Fog Fog
3:15 PM 41.0 °F 39.0 °F 41.0 °F 100% 30.16 in 0.2 mi ESE 3.5 mph - N/A Fog Fog
3:34 PM 41.0 °F 39.0 °F 41.0 °F 100% 30.15 in 0.5 mi East 3.5 mph - N/A Fog Fog
4:00 PM 40 °F - 40 °F 100% 30.15 in 0 mi NE 5.8 mph - - Fog Heavy Fog
4:00 PM 41.0 °F 37.1 °F 41.0 °F 100% 30.15 in 0.5 mi ENE 5.8 mph - N/A Fog Fog
4:05 PM 41.0 °F 38.0 °F 39.2 °F 93% 30.15 in 0.2 mi NE 4.6 mph - N/A Fog Fog
4:10 PM 39.2 °F 35.0 °F 39.2 °F 100% 30.15 in 0.1 mi NE 5.8 mph - N/A Fog Fog
4:17 PM 39.2 °F 37.0 °F 39.2 °F 100% 30.15 in 0.4 mi ENE 3.5 mph - N/A Fog Fog
4:43 PM 39.2 °F 37.0 °F 39.2 °F 100% 30.14 in 0.1 mi ENE 3.5 mph - N/A Fog Fog
5:00 PM 39.2 °F 37.0 °F 39.2 °F 100% 30.14 in 0.1 mi NE 3.5 mph - N/A Fog Fog
6:00 PM 39.2 °F - 39.2 °F 100% 30.15 in 0.1 mi Variable 2.3 mph - N/A Fog Fog
7:00 PM 39.2 °F 35.9 °F 39.2 °F 100% 30.14 in 0.1 mi West 4.6 mph - N/A Fog Fog
8:00 PM 37.4 °F - 37.4 °F 100% 30.14 in 0.1 mi Calm Calm - N/A Fog Fog
9:00 PM 37.4 °F 34.9 °F 37.4 °F 100% 30.14 in 0.1 mi WSW 3.5 mph - N/A Fog Fog
10:00 PM 37 °F - 37 °F 98% 30.14 in 0 mi North 3.5 mph - - Fog Heavy Fog
10:00 PM 37.4 °F 34.9 °F 37.4 °F 100% 30.14 in 0.1 mi NNE 3.5 mph - N/A Fog Fog
11:00 PM 37.4 °F 33.8 °F 37.4 °F 100% 30.14 in 0.1 mi NNE 4.6 mph - N/A Fog Fog
11:31 PM 35.6 °F 32.8 °F 35.6 °F 100% 30.15 in 0.1 mi West 3.5 mph - N/A Fog Fog